Regional Weather Roundup
Issued by NWS

Home | Current Version | Previous Version | Graphics & Text | Print | Product List | Glossary On
Versions: 1 2 3 4 5 6 7 8 9 10 11 12 13 14 15 16 17 18 19 20 21 22 23 24 25 26 27 28 29 30 31 32 33 34 35 36 37 38 39 40 41 42 43 44 45 46 47 48 49 50
000
ASUS43 KTOP 011059
RWRKS

WEATHER ROUNDUP FOR KANSAS
NATIONAL WEATHER SERVICE GOODLAND KS
600 AM CDT SAT NOV 01 2014

NOTE:  "FAIR" INDICATES FEW OR NO CLOUDS BELOW 12,000 FEET WITH NO
SIGNIFICANT WEATHER AND/OR OBSTRUCTIONS TO VISIBILITY.

KSZ001>006-013>018-027>032-041>047-011200-
NORTHWEST KANSAS

CITY           SKY/WX    TMP DP  RH WIND       PRES   REMARKS
GOODLAND       PTCLDY    31  22  69 S18G29    30.08F WCI  19
HAYS           CLEAR     30  14  51 SE14      30.29S WCI  20
HILL CITY      CLEAR     33  16  49 SE13      30.25F WCI  24
RUSSELL        CLEAR     31  18  58 SE14      30.30F WCI  21
$$

KSZ061>065-074>080-084>089-011200-
SOUTHWEST KANSAS

CITY           SKY/WX    TMP DP  RH WIND       PRES   REMARKS
DODGE CITY     PTCLDY    32  16  51 S20       30.27F WCI  20
ELKHART          N/A     38  21  50 S21         N/A  WCI  28
GARDEN CITY    PTCLDY    33  20  58 S16G26    30.20F WCI  23
GREAT BEND     PTCLDY    30  16  55 S15       30.33S WCI  19
LIBERAL        CLEAR     34  21  60 SE10      30.25S WCI  26
PRATT          CLEAR     32  19  59 S9        30.35S
$$

KSZ066>073-081>083-090>101-011200-
SOUTHEAST KANSAS

CITY           SKY/WX    TMP DP  RH WIND       PRES   REMARKS
CHANUTE          N/A    N/A N/A N/A MISG      30.46R
COFFEYVILLE    CLEAR     25  22  88 NE5       30.47R
HUTCHINSON     PTCLDY    30  19  63 SE7       30.38F
MEDICINE LODGE   N/A     29  18  63 SE6       30.37S
NEWTON         PTCLDY    27  16  63 SE9       30.40S
PARSONS        CLEAR     24  20  84 CALM      30.47R
WICHITA INTL   CLEAR     32  18  56 SE9       30.40S
WICHITA JABRA  CLEAR     28  19  69 SE7       30.40S
WINFIELD       PTCLDY    29  20  69 E8        30.42F
$$

KSZ007>012-019>026-033>040-048>060-102>105-011200-
NORTHEAST KANSAS

CITY           SKY/WX    TMP DP  RH WIND       PRES   REMARKS
CONCORDIA      PTCLDY    30  19  63 SE10      30.37F WCI  21
EMPORIA        PTCLDY    25  20  81 SE6       30.43F
LAWRENCE       PTCLDY    21  19  92 SE3       30.47S
MANHATTAN      CLEAR     27  20  75 CALM      30.43S
OLATHE IND     PTCLDY    28  20  71 E5        30.46S
OLATHE EXE     PTCLDY    29  20  69 E6        30.44S
SALINA         CLEAR     31  19  61 SE13      30.39S WCI  21
TOPEKA BILLARD PTCLDY    26  22  84 CALM      30.46S
TOPEKA FORBES  PTCLDY    22  18  85 S3        30.45S
$$



USA.gov is the U.S. government's official web portal to all federal, state and local government web resources and services.